This is the latest recevied weather packets stored in our database for station/object K8BCO. If no packets are shown the sender has not sent any weather packets the latest 10 day(s).
| Time | Temp. | Humidity | Pressure | Rain* | Wind** | Luminosity | Snow |
|---|---|---|---|---|---|---|---|
| 1777379718 | 6.11° C | 82% | 999 hPa | 0 mm | - | 125 W/m² | - |
| 1777379118 | 6.11° C | 81% | 999 hPa | 0 mm | - | 110 W/m² | - |
| 1777378518 | 6.67° C | 81% | 998.9 hPa | 0 mm | - | 89 W/m² | - |
| 1777377918 | 6.67° C | 83% | 998.7 hPa | 0 mm | - | 75 W/m² | - |
| 1777377319 | 6.67° C | 84% | 998.6 hPa | 0 mm | - | 38 W/m² | - |
| 1777376718 | 7.22° C | 84% | 998.3 hPa | 0 mm | - | 38 W/m² | - |
| 1777376119 | 7.22° C | 84% | 998.2 hPa | 0 mm | - | 37 W/m² | - |
| 1777375519 | 7.22° C | 85% | 998 hPa | 0 mm | - | 29 W/m² | - |
| 1777374919 | 7.22° C | 85% | 997.9 hPa | 0 mm | - | 19 W/m² | - |
| 1777374317 | 7.78° C | 85% | 997.5 hPa | 0 mm | - | 12 W/m² | - |
| 1777373720 | 7.78° C | 85% | 997.4 hPa | 0 mm | - | 7 W/m² | - |
| 1777373119 | 7.78° C | 87% | 997.1 hPa | 0 mm | - | 3 W/m² | - |
| 1777372523 | 7.78° C | 87% | 997.2 hPa | 0 mm | - | 1 W/m² | - |
| 1777371925 | 7.78° C | 88% | 997.1 hPa | 0 mm | - | 0 W/m² | - |
| 1777371321 | 8.33° C | 88% | 997.2 hPa | 0 mm | - | 0 W/m² | - |
| 1777370717 | 8.89° C | 88% | 997.1 hPa | 0 mm | - | 0 W/m² | - |
| 1777370120 | 8.89° C | 92% | 997 hPa | 0 mm | - | 0 W/m² | - |
| 1777369529 | 9.44° C | 93% | 996.8 hPa | 0 mm | - | 0 W/m² | - |
| 1777368929 | 9.44° C | 93% | 996.6 hPa | 0 mm | - | 0 W/m² | - |
| 1777368321 | 9.44° C | 94% | 996.5 hPa | 0 mm | - | 0 W/m² | - |
| 1777367720 | 9.44° C | 95% | 996.3 hPa | 0 mm | - | 0 W/m² | - |
| 1777367121 | 8.89° C | 96% | 996.2 hPa | 0 mm | - | 0 W/m² | - |
| 1777366529 | 8.89° C | 97% | 995.9 hPa | 0 mm | - | 0 W/m² | - |
| 1777365930 | 9.44° C | 97% | 995.8 hPa | 0 mm | - | 0 W/m² | - |
| 1777365330 | 9.44° C | 97% | 995.6 hPa | 0 mm | - | 0 W/m² | - |
* Rain latest hour (hover to see other rain measurements)
** Current wind speed in m/s (hover to see current wind gust speed)